EWG4GA EDDS-EDDH

Flight info

Callsign EWG4GA
Flight time 0h 53m
Altitude 35000
Route OKIBA4B OKIBA N851 RIMKI Z99 LOHRE DCT MASEK DCT ELNAT/N0425F340 P605 NOLGO NOLGO6A
Aircraft A320/M-SDE3FGHIRWY/LB1

Departure

Time 2026-05-06 20:53
Airport Stuttgart Airport (EDDS)

Arrival

Time 2026-05-06 21:46
Airport Hamburg Helmut Schmidt Airport (EDDH)
Time Latitude Longitude Altitude Speed Heading
2026-05-06 20:25 48.68870 9.19288 1316 ft 0 kts 344°
2026-05-06 20:44 48.68868 9.19289 1315 ft 2 kts 344°
2026-05-06 20:45 48.68843 9.19300 1315 ft 4 kts 344°
2026-05-06 20:45 48.68817 9.19307 1315 ft 4 kts
2026-05-06 20:45 48.68794 9.19296 1314 ft 4 kts 51°
2026-05-06 20:45 48.68788 9.19283 1315 ft 0 kts 74°
2026-05-06 20:49 48.68799 9.19343 1314 ft 10 kts 74°
2026-05-06 20:50 48.68820 9.19450 1312 ft 9 kts 73°
2026-05-06 20:50 48.68839 9.19549 1310 ft 12 kts 74°
2026-05-06 20:50 48.68862 9.19670 1308 ft 12 kts 74°
2026-05-06 20:50 48.68889 9.19815 1304 ft 14 kts 73°
2026-05-06 20:51 48.68865 9.19883 1301 ft 12 kts 152°
2026-05-06 20:51 48.68773 9.19945 1294 ft 13 kts 160°
2026-05-06 20:51 48.68701 9.19980 1290 ft 10 kts 162°
2026-05-06 20:51 48.68631 9.20014 1286 ft 13 kts 162°
2026-05-06 20:52 48.68593 9.20111 1282 ft 13 kts 75°
2026-05-06 20:52 48.68638 9.20347 1277 ft 51 kts 73°
2026-05-06 20:52 48.68807 9.21244 1266 ft 122 kts 74°
2026-05-06 20:52 48.69090 9.22745 1296 ft 168 kts 74°
2026-05-06 20:53 48.69388 9.24407 2052 ft 161 kts 75°
2026-05-06 20:53 48.69681 9.26048 2655 ft 164 kts 76°
2026-05-06 20:53 48.70008 9.27814 2936 ft 185 kts 75°
2026-05-06 20:53 48.70381 9.29796 3170 ft 207 kts 74°
2026-05-06 20:54 48.70801 9.32004 3376 ft 230 kts 73°
2026-05-06 20:54 48.71270 9.34454 3635 ft 255 kts 73°
2026-05-06 20:54 48.71847 9.37121 4052 ft 276 kts 62°
2026-05-06 20:54 48.73040 9.39395 4816 ft 278 kts 34°
2026-05-06 20:55 48.74736 9.40632 5699 ft 275 kts
2026-05-06 20:55 48.76633 9.40664 6540 ft 274 kts 350°
2026-05-06 20:55 48.78537 9.40323 7355 ft 277 kts 351°
2026-05-06 20:55 48.80469 9.39977 8138 ft 282 kts 351°
2026-05-06 20:56 48.82438 9.39627 8943 ft 287 kts 351°
2026-05-06 20:56 48.84435 9.39279 9786 ft 291 kts 351°
2026-05-06 20:56 48.86493 9.38925 10273 ft 307 kts 351°
2026-05-06 20:56 48.88693 9.38548 10507 ft 329 kts 351°
2026-05-06 20:57 48.91012 9.38151 11041 ft 339 kts 351°
2026-05-06 20:57 48.93381 9.37745 11734 ft 345 kts 351°
2026-05-06 20:57 48.95757 9.37341 12449 ft 350 kts 351°
2026-05-06 20:57 48.98196 9.36928 13144 ft 354 kts 351°
2026-05-06 20:58 49.00656 9.36511 13809 ft 358 kts 351°
2026-05-06 20:58 49.03148 9.36088 14425 ft 362 kts 351°
2026-05-06 20:58 49.05662 9.35664 15063 ft 365 kts 352°
2026-05-06 20:58 49.08195 9.35234 15706 ft 368 kts 352°
2026-05-06 20:59 49.10748 9.34795 16348 ft 371 kts 352°
2026-05-06 20:59 49.13320 9.34351 16988 ft 374 kts 352°
2026-05-06 20:59 49.15916 9.33900 17577 ft 377 kts 353°
2026-05-06 20:59 49.18540 9.33443 18136 ft 382 kts 353°
2026-05-06 21:00 49.21199 9.32982 18666 ft 385 kts 352°
2026-05-06 21:00 49.23863 9.32525 19214 ft 387 kts 353°
2026-05-06 21:00 49.26544 9.32068 19771 ft 389 kts 352°
2026-05-06 21:00 49.29244 9.31603 20290 ft 392 kts 353°
2026-05-06 21:01 49.31974 9.31129 20795 ft 395 kts 353°
2026-05-06 21:01 49.34711 9.30691 21329 ft 396 kts 356°
2026-05-06 21:01 49.37479 9.30802 21794 ft 400 kts
2026-05-06 21:01 49.40263 9.31223 22249 ft 403 kts
2026-05-06 21:02 49.43071 9.31650 22745 ft 406 kts
2026-05-06 21:02 49.45894 9.32077 23211 ft 409 kts
2026-05-06 21:02 49.47769 9.32359 23499 ft 411 kts
2026-05-06 21:02 49.50626 9.32788 23892 ft 413 kts
2026-05-06 21:03 49.53496 9.33216 24280 ft 416 kts
2026-05-06 21:03 49.56382 9.33640 24660 ft 418 kts
2026-05-06 21:03 49.59290 9.34065 25022 ft 421 kts
2026-05-06 21:03 49.62219 9.34495 25351 ft 425 kts
2026-05-06 21:04 49.65170 9.34931 25708 ft 427 kts
2026-05-06 21:04 49.68142 9.35374 26052 ft 430 kts
2026-05-06 21:04 49.71133 9.35820 26400 ft 433 kts
2026-05-06 21:04 49.74136 9.36285 26750 ft 435 kts
2026-05-06 21:05 49.77074 9.37201 27083 ft 436 kts 15°
2026-05-06 21:05 49.80029 9.38340 27429 ft 439 kts 15°
2026-05-06 21:05 49.83000 9.39489 27768 ft 441 kts 15°
2026-05-06 21:05 49.85989 9.40643 28113 ft 443 kts 15°
2026-05-06 21:06 49.88997 9.41804 28460 ft 446 kts 15°
2026-05-06 21:06 49.92014 9.42968 28793 ft 448 kts 15°
2026-05-06 21:06 49.95048 9.44142 29111 ft 450 kts 15°
2026-05-06 21:06 49.98093 9.45319 29443 ft 452 kts 15°
2026-05-06 21:07 50.01162 9.46504 29752 ft 455 kts 16°
2026-05-06 21:07 50.04235 9.47693 30013 ft 457 kts 15°
2026-05-06 21:07 50.07356 9.48739 30239 ft 460 kts
2026-05-06 21:07 50.10551 9.49283 30455 ft 463 kts
2026-05-06 21:08 50.13781 9.49806 30669 ft 466 kts
2026-05-06 21:08 50.17012 9.50344 30884 ft 468 kts
2026-05-06 21:08 50.20264 9.50895 31107 ft 471 kts
2026-05-06 21:08 50.23519 9.51448 31409 ft 471 kts
2026-05-06 21:09 50.26778 9.52001 31682 ft 472 kts
2026-05-06 21:09 50.30052 9.52555 31920 ft 474 kts
2026-05-06 21:09 50.33298 9.53101 32184 ft 475 kts
2026-05-06 21:09 50.36630 9.53657 32478 ft 476 kts
2026-05-06 21:10 50.39883 9.54202 32765 ft 476 kts
2026-05-06 21:10 50.43184 9.54757 33056 ft 477 kts
2026-05-06 21:10 50.46484 9.55316 33346 ft 478 kts
2026-05-06 21:10 50.49799 9.55881 33576 ft 480 kts
2026-05-06 21:11 50.53123 9.56451 33871 ft 480 kts
2026-05-06 21:11 50.56446 9.57021 34138 ft 480 kts
2026-05-06 21:11 50.59763 9.57588 34412 ft 479 kts
2026-05-06 21:11 50.63077 9.58155 34675 ft 479 kts
2026-05-06 21:12 50.66399 9.58724 34805 ft 478 kts
2026-05-06 21:12 50.72973 9.59848 34829 ft 472 kts
2026-05-06 21:13 50.79459 9.61034 34833 ft 472 kts
2026-05-06 21:13 50.85977 9.62328 34834 ft 472 kts
2026-05-06 21:14 50.92495 9.63620 34840 ft 472 kts
2026-05-06 21:14 50.99017 9.64900 34842 ft 471 kts
2026-05-06 21:15 51.05520 9.66175 34847 ft 471 kts
2026-05-06 21:15 51.12019 9.67449 34848 ft 470 kts
2026-05-06 21:16 51.18509 9.68719 34854 ft 470 kts
2026-05-06 21:16 51.24999 9.69926 34859 ft 468 kts
2026-05-06 21:17 51.31447 9.70941 34852 ft 467 kts
2026-05-06 21:17 51.37915 9.71931 34863 ft 467 kts
2026-05-06 21:18 51.44379 9.72961 34872 ft 466 kts
2026-05-06 21:18 51.50826 9.74051 34870 ft 465 kts
2026-05-06 21:19 51.57252 9.75290 34862 ft 464 kts
2026-05-06 21:19 51.63661 9.76559 34854 ft 464 kts
2026-05-06 21:20 51.70079 9.77789 34855 ft 463 kts
2026-05-06 21:20 51.76478 9.78992 34853 ft 463 kts
2026-05-06 21:21 51.82829 9.80198 34856 ft 462 kts
2026-05-06 21:21 51.89219 9.81427 34864 ft 462 kts
2026-05-06 21:22 51.95599 9.82661 34857 ft 462 kts
2026-05-06 21:22 52.01981 9.83901 34833 ft 462 kts
2026-05-06 21:22 52.05188 9.84529 34260 ft 466 kts
2026-05-06 21:23 52.08402 9.85159 33647 ft 464 kts
2026-05-06 21:23 52.11599 9.85788 33050 ft 461 kts
2026-05-06 21:23 52.14730 9.86403 32474 ft 457 kts
2026-05-06 21:23 52.17871 9.87020 31921 ft 453 kts
2026-05-06 21:24 52.20980 9.87630 31365 ft 449 kts
2026-05-06 21:24 52.24067 9.88240 30813 ft 445 kts
2026-05-06 21:24 52.27091 9.89291 30296 ft 442 kts 14°
2026-05-06 21:24 52.30051 9.90590 29757 ft 439 kts 14°
2026-05-06 21:25 52.32983 9.91879 29230 ft 433 kts 14°
2026-05-06 21:25 52.35873 9.93153 28745 ft 427 kts 14°
2026-05-06 21:25 52.38726 9.94413 28255 ft 422 kts 14°
2026-05-06 21:25 52.41539 9.95656 27783 ft 416 kts 13°
2026-05-06 21:26 52.44322 9.96884 27326 ft 411 kts 13°
2026-05-06 21:26 52.47059 9.98093 26876 ft 405 kts 13°
2026-05-06 21:26 52.49764 9.99291 26440 ft 400 kts 13°
2026-05-06 21:26 52.52435 10.00477 26019 ft 395 kts 13°
2026-05-06 21:27 52.55072 10.01649 25583 ft 390 kts 13°
2026-05-06 21:27 52.57684 10.02810 25122 ft 387 kts 13°
2026-05-06 21:27 52.60266 10.03963 24763 ft 382 kts 13°
2026-05-06 21:27 52.62826 10.05107 24292 ft 380 kts 13°
2026-05-06 21:28 52.65338 10.06226 23872 ft 377 kts 13°
2026-05-06 21:28 52.67858 10.07351 23414 ft 375 kts 13°
2026-05-06 21:28 52.70370 10.08474 22925 ft 372 kts 13°
2026-05-06 21:28 52.72857 10.09591 22486 ft 368 kts 13°
2026-05-06 21:29 52.75320 10.10700 22058 ft 365 kts 13°
2026-05-06 21:29 52.77783 10.11625 21613 ft 361 kts
2026-05-06 21:29 52.80269 10.11865 21180 ft 356 kts 358°
2026-05-06 21:29 52.82742 10.11932 20767 ft 354 kts 359°
2026-05-06 21:30 52.85204 10.12009 20329 ft 353 kts 359°
2026-05-06 21:30 52.87656 10.11606 19444 ft 360 kts 342°
2026-05-06 21:30 52.89926 10.09841 18515 ft 362 kts 322°
2026-05-06 21:30 52.91832 10.07150 17620 ft 358 kts 317°
2026-05-06 21:31 52.93677 10.04431 16793 ft 352 kts 317°
2026-05-06 21:31 52.95497 10.01751 15968 ft 348 kts 317°
2026-05-06 21:31 52.97294 9.99102 15177 ft 343 kts 317°
2026-05-06 21:31 52.99072 9.96488 14403 ft 339 kts 317°
2026-05-06 21:32 53.00808 9.93942 13669 ft 335 kts 317°
2026-05-06 21:32 53.04264 9.88873 11966 ft 329 kts 318°
2026-05-06 21:32 53.05960 9.86368 11228 ft 323 kts 318°
2026-05-06 21:33 53.07606 9.83932 10864 ft 308 kts 319°
2026-05-06 21:33 53.09193 9.81582 10619 ft 304 kts 319°
2026-05-06 21:33 53.10768 9.79249 10378 ft 304 kts 319°
2026-05-06 21:33 53.12340 9.76918 10130 ft 300 kts 319°
2026-05-06 21:34 53.13881 9.74633 9925 ft 292 kts 319°
2026-05-06 21:34 53.15385 9.72400 9694 ft 286 kts 319°
2026-05-06 21:34 53.16843 9.70227 9471 ft 285 kts 320°
2026-05-06 21:34 53.18316 9.68031 9106 ft 282 kts 320°
2026-05-06 21:35 53.19776 9.65850 8730 ft 281 kts 320°
2026-05-06 21:35 53.21227 9.63684 8358 ft 280 kts 320°
2026-05-06 21:35 53.22676 9.61522 7982 ft 279 kts 320°
2026-05-06 21:35 53.24123 9.59365 7605 ft 278 kts 320°
2026-05-06 21:36 53.25561 9.57218 7230 ft 277 kts 320°
2026-05-06 21:36 53.26995 9.55071 6859 ft 276 kts 320°
2026-05-06 21:36 53.28417 9.52935 6510 ft 274 kts 320°
2026-05-06 21:36 53.29829 9.50809 6168 ft 273 kts 320°
2026-05-06 21:37 53.31238 9.48696 5797 ft 271 kts 320°
2026-05-06 21:37 53.32670 9.46656 5442 ft 268 kts 329°
2026-05-06 21:37 53.34377 9.45625 5092 ft 260 kts 358°
2026-05-06 21:37 53.36126 9.46047 4887 ft 255 kts 24°
2026-05-06 21:38 53.37558 9.47723 4694 ft 252 kts 49°
2026-05-06 21:38 53.38697 9.49964 4508 ft 252 kts 50°
2026-05-06 21:38 53.39819 9.52208 4346 ft 251 kts 50°
2026-05-06 21:38 53.40918 9.54411 4211 ft 241 kts 51°
2026-05-06 21:39 53.41960 9.56539 4090 ft 237 kts 51°
2026-05-06 21:39 53.43046 9.58723 3972 ft 245 kts 50°
2026-05-06 21:39 53.44089 9.60801 3987 ft 227 kts 50°
2026-05-06 21:39 53.45084 9.62782 3992 ft 220 kts 50°
2026-05-06 21:40 53.46064 9.64734 4005 ft 219 kts 50°
2026-05-06 21:40 53.47044 9.66691 4005 ft 218 kts 50°
2026-05-06 21:40 53.48014 9.68628 4006 ft 213 kts 50°
2026-05-06 21:40 53.48936 9.70469 3994 ft 199 kts 50°
2026-05-06 21:41 53.49816 9.72229 3833 ft 195 kts 50°
2026-05-06 21:41 53.50683 9.73964 3597 ft 194 kts 50°
2026-05-06 21:41 53.51549 9.75700 3343 ft 194 kts 50°
2026-05-06 21:41 53.52414 9.77433 3081 ft 192 kts 50°
2026-05-06 21:42 53.53257 9.79122 2832 ft 184 kts 51°
2026-05-06 21:42 53.54051 9.80716 2574 ft 171 kts 51°
2026-05-06 21:42 53.54776 9.82170 2369 ft 152 kts 51°
2026-05-06 21:42 53.55421 9.83466 2148 ft 139 kts 51°
2026-05-06 21:43 53.56033 9.84696 1956 ft 135 kts 51°
2026-05-06 21:43 53.56630 9.85898 1777 ft 132 kts 52°
2026-05-06 21:43 53.57220 9.87086 1593 ft 132 kts 51°
2026-05-06 21:43 53.57809 9.88272 1405 ft 132 kts 51°
2026-05-06 21:44 53.58386 9.89472 1158 ft 131 kts 51°
2026-05-06 21:44 53.58974 9.90644 1027 ft 131 kts 50°
2026-05-06 21:44 53.59566 9.91805 851 ft 131 kts 50°
2026-05-06 21:44 53.60135 9.92987 673 ft 132 kts 49°
2026-05-06 21:45 53.60731 9.94167 463 ft 132 kts 48°
2026-05-06 21:45 53.61324 9.95355 315 ft 134 kts 50°
2026-05-06 21:45 53.61912 9.96549 111 ft 131 kts 49°
2026-05-06 21:45 53.62473 9.97671 44 ft 114 kts 49°
2026-05-06 21:46 53.62885 9.98504 44 ft 70 kts 51°
2026-05-06 21:46 53.63147 9.99042 46 ft 53 kts 50°
2026-05-06 21:46 53.63283 9.99379 47 ft 23 kts 73°
2026-05-06 21:46 53.63282 9.99601 48 ft 10 kts 99°
2026-05-06 21:47 53.63279 9.99635 48 ft 0 kts 98°
2026-05-06 21:47 53.63279 9.99636 48 ft 1 kts 98°
2026-05-06 21:48 53.63276 9.99710 48 ft 11 kts 87°
2026-05-06 21:48 53.63320 9.99844 48 ft 14 kts 50°
2026-05-06 21:48 53.63388 9.99983 48 ft 16 kts 50°
2026-05-06 21:48 53.63443 10.00102 48 ft 7 kts 64°
2026-05-06 21:49 53.63450 10.00162 48 ft 4 kts 89°
2026-05-06 21:49 53.63448 10.00227 48 ft 6 kts 90°
2026-05-06 21:49 53.63449 10.00264 48 ft 2 kts 85°
2026-05-06 21:49 53.63449 10.00267 48 ft 0 kts 85°
2026-05-06 21:50 53.63449 10.00275 48 ft 1 kts 87°
2026-05-06 21:50 53.63450 10.00286 48 ft 2 kts 87°
2026-05-06 21:50 53.63450 10.00313 48 ft 1 kts 87°
2026-05-06 21:50 53.63451 10.00315 48 ft 0 kts 87°